Weather History for KASX - April, 2013

Change the Weather History Date:

Monday, April 29, 2013

  Actual Average Record
Temperature  
Mean Temperature 51 °F -  
Max Temperature 64 °F 58 °F 85 °F (1965)
Min Temperature 39 °F 32 °F 16 °F (1958)
Degree Days  
Heating Degree Days 14    
Growing Degree Days 1 (Base 50)    
Moisture  
Dew Point 41 °F    
Average Humidity 73    
Maximum Humidity 96    
Minimum Humidity 39    
Precipitation  
Precipitation 0.01 in - - ()
Sea Level Pressure  
Sea Level Pressure 29.75 in    
Wind  
Wind Speed 4 mph (North)    
Max Wind Speed 12 mph    
Max Gust Speed -    
Visibility 9 miles    
Events      
Averages and records for this station are not official NWS values.
T = Trace of Precipitation, MM = Missing Value Source: NWS Daily Summary

Daily Weather History Graph

Daily Weather History Graph

Search for Another Location

Airport or City:

Trip Planner

Search our weather history database for the weather conditions in past years. The results will help you decide how hot, cold, wet, or windy it might be!

Date:

Astronomy

Apr. 29, 2013 Rise Set
Actual Time 5:52 AM CDT 8:10 PM CDT
Civil Twilight 5:18 AM CDT 8:44 PM CDT
Nautical Twilight 4:37 AM CDT 9:25 PM CDT
Astronomical Twilight 3:50 AM CDT 10:13 PM CDT
Moon No Moon Rise 9:06 AM CDT (4/29)
Length of Visible Light 15h 25m
Length of Day
14h 18m
Waning Gibbous, 80% of the Moon is Illuminated
Apr 29
Waning Gibbous
May 2
Last Quarter
May 9
New
May 17
First Quarter
May 24
Full

Hourly Weather History & Observations

Time (CDT) Temp. Windchill Dew Point Humidity Pressure Visibility Wind Dir Wind Speed Gust Speed Precip Events Conditions
12:23 AM 51.8 °F - 50.0 °F 94% 29.74 in 2.0 mi Calm Calm - 0.00 in   Overcast
12:38 AM 51.8 °F - 50.0 °F 94% 29.75 in 4.0 mi SSW 4.6 mph - 0.00 in   Overcast
12:53 AM 51.1 °F - 50.0 °F 96% 29.75 in 4.0 mi West 3.5 mph - 0.00 in   Overcast
1:53 AM 51.1 °F - 48.9 °F 92% 29.76 in 10.0 mi WSW 5.8 mph - N/A   Clear
2:53 AM 51.1 °F - 48.9 °F 92% 29.77 in 10.0 mi SW 5.8 mph - N/A   Clear
3:53 AM 48.9 °F - 45.0 °F 86% 29.78 in 10.0 mi WSW 5.8 mph - 0.01 in   Clear
4:53 AM 43.0 °F 41.3 °F 41.0 °F 93% 29.80 in 10.0 mi SW 3.5 mph - N/A   Clear
5:53 AM 41.0 °F 36.4 °F 39.0 °F 93% 29.81 in 10.0 mi West 6.9 mph - N/A   Clear
6:53 AM 44.1 °F - 39.0 °F 82% 29.82 in 10.0 mi Calm Calm - N/A   Clear
7:53 AM 48.9 °F - 37.0 °F 64% 29.83 in 10.0 mi Calm Calm - N/A   Clear
8:53 AM 53.1 °F - 34.0 °F 48% 29.83 in 10.0 mi Calm Calm - N/A   Clear
9:53 AM 55.9 °F - 33.1 °F 42% 29.81 in 10.0 mi ENE 5.8 mph - N/A   Clear
10:53 AM 59.0 °F - 34.0 °F 39% 29.81 in 10.0 mi North 8.1 mph - N/A   Clear
11:53 AM 59.0 °F - 36.0 °F 42% 29.80 in 10.0 mi NNE 9.2 mph - N/A   Clear
1:53 PM 61.0 °F - 39.9 °F 46% 29.77 in 10.0 mi North 8.1 mph - N/A   Unknown
2:53 PM 63.0 °F - 39.0 °F 41% 29.75 in 10.0 mi NNE 9.2 mph - N/A   Clear
3:53 PM 63.0 °F - 39.0 °F 41% 29.72 in 10.0 mi NNE 11.5 mph - N/A   Clear
4:53 PM 59.0 °F - 42.1 °F 53% 29.71 in 10.0 mi ENE 11.5 mph - N/A   Clear
5:53 PM 54.0 °F - 41.0 °F 62% 29.70 in 10.0 mi ENE 10.4 mph - N/A   Clear
6:53 PM 45.0 °F 41.2 °F 37.9 °F 76% 29.70 in 10.0 mi North 6.9 mph - N/A   Clear
7:53 PM 42.1 °F 37.7 °F 37.0 °F 82% 29.70 in 10.0 mi NNE 6.9 mph - N/A   Mostly Cloudy
8:53 PM 42.1 °F - 37.9 °F 85% 29.70 in 8.0 mi Calm Calm - N/A   Mostly Cloudy
9:53 PM 39.0 °F - 37.0 °F 93% 29.70 in 7.0 mi Calm Calm - N/A   Partly Cloudy
10:53 PM 42.1 °F 40.2 °F 39.0 °F 89% 29.68 in 7.0 mi NE 3.5 mph - N/A   Partly Cloudy
11:53 PM 41.0 °F - 39.0 °F 93% 29.68 in 7.0 mi Calm Calm - N/A   Mostly Cloudy